VE3COE Weather Reports


time (UTC)temp
F
wind
direction
speed
knots
gust
knots
rain 1hr
in
rain 24hr
in
rain mn
in
humidity
%
barometer
mb
20260510172725 46 261 0.9 3.5 0.00 0.11 0.00 76 1016.0
20260510165719 46 261 1.7 3.5 0.00 0.11 0.00 80 1015.8
20260510162717 44 261 1.7 5.2 0.00 0.11 0.00 85 1015.5
20260510155717 44 261 2.6 4.3 0.00 0.13 0.00 84 1015.1
20260510152718 43 261 2.6 4.3 0.00 0.13 0.00 84 1014.9
20260510145716 43 261 2.6 7.8 0.00 0.13 0.00 84 1014.5
20260510142717 43 278 3.5 7.0 0.00 0.14 0.00 83 1013.9
20260510135717 43 261 3.5 7.0 0.00 0.14 0.00 84 1013.6
20260510132726 42 0 3.5 7.0 0.00 0.14 0.00 84 1013.3
20260510125717 42 261 2.6 5.2 0.00 0.14 0.00 84 1012.7
20260510122717 42 261 2.6 5.2 0.00 0.14 0.00 85 1012.4
20260510122459 42 261 2.6 7.0 0.00 0.14 0.00 85 1012.1
20260510112717 42 261 2.6 7.8 0.00 0.14 0.00 84 1011.4
20260510105717 42 261 2.6 7.8 0.00 0.14 0.00 84 1011.0
20260510102715 42 261 2.6 11.3 0.00 0.14 0.00 85 1010.5
20260510102437 42 261 4.3 11.3 0.00 0.14 0.00 83 1010.1
20260510092711 42 261 2.6 7.8 0.00 0.14 0.00 84 1009.6
20260510085710 43 261 3.5 12.2 0.00 0.14 0.00 83 1009.3
20260510082710 42 0 2.6 12.2 0.00 0.14 0.00 86 1008.9
20260510075711 43 261 6.1 11.3 0.00 0.14 0.00 81 1008.5
20260510072710 42 261 3.5 8.7 0.00 0.14 0.00 83 1008.3
20260510065708 42 0 1.7 7.0 0.00 0.14 0.00 85 1008.3
20260510062708 42 0 1.7 7.0 0.00 0.14 0.00 84 1008.0
20260510055710 42 261 3.5 7.8 0.00 0.14 0.00 85 1007.9
20260510052708 42 261 4.3 10.4 0.00 0.14 0.00 85 1007.7
20260510045708 43 261 5.2 12.2 0.00 0.14 0.00 84 1007.3
20260510045513 43 261 4.3 11.3 0.00 0.14 0.00 83 1007.0
20260510035709 44 31 6.1 13.9 0.00 0.14 0.14 83 1006.5
20260510032707 44 261 4.3 10.4 0.00 0.14 0.14 83 1006.2
20260510025705 44 261 4.3 10.4 0.00 0.14 0.14 83 1005.8
20260510022704 45 261 2.6 8.7 0.00 0.14 0.14 78 1005.2
20260510021053 47 261 2.6 8.7 0.00 0.14 0.14 70 1004.6
20260510013813 47 14 0.9 5.2 0.00 0.14 0.14 75 1003.3
20260510012702 46 261 0.9 3.5 0.00 0.14 0.14 72 1003.8
20260510002700 48 261 1.7 6.1 0.00 0.14 0.14 77 1002.6
20260510001047 48 43 0.9 7.0 0.00 0.14 0.14 78 1002.1
20260509234044 46 57 2.6 9.6 0.00 0.14 0.14 85 1001.5
20260509225700 49 261 5.2 10.4 0.00 0.14 0.14 81 1001.0
20260509222700 52 261 2.6 6.1 0.00 0.14 0.14 79 999.9
20260509215700 52 261 0.9 6.1 0.00 0.14 0.14 79 999.7
20260509212700 54 261 0.9 5.2 0.00 0.14 0.14 80 999.3
20260509212445 54 261 1.7 10.4 0.00 0.14 0.14 83 998.9
20260509202658 54 261 1.7 9.6 0.00 0.14 0.14 85 998.5
20260509201047 53 261 2.6 10.4 0.11 0.14 0.14 91 998.4
20260509192658 53 261 3.5 15.6 0.11 0.14 0.14 91 998.1
20260509185658 60 261 4.3 18.2 0.00 0.03 0.03 72 997.2
20260509184113 62 261 6.1 20.9 0.00 0.03 0.03 67 997.4
20260509175657 65 261 7.0 21.7 0.00 0.03 0.03 59 997.6